Time,TemperatureF,DewpointF,PressureIn,WindDirection,WindDirectionDegrees,WindSpeedMPH,WindSpeedGustMPH,Humidity,HourlyPrecipIn,Conditions,Clouds,dailyrainin,SolarRadiationWatts/m^2,SoftwareType,DateUTC
2013-01-11 00:02:00,51.7,51.0,29.95,SSW,210,4.0,-999.0,96,-99.99,,,0.00,0,weatherlink.com 1.10,2013-01-11 06:02:00,
2013-01-11 00:17:00,51.5,50.0,29.95,SSW,212,0.0,-999.0,95,-99.99,,,0.00,0,weatherlink.com 1.10,2013-01-11 06:17:00,
2013-01-11 00:32:00,51.2,50.0,29.95,SW,214,3.0,-999.0,94,-99.99,,,0.00,0,weatherlink.com 1.10,2013-01-11 06:32:00,
2013-01-11 00:47:00,50.8,49.0,29.95,SW,214,0.0,-999.0,93,-99.99,,,0.00,0,weatherlink.com 1.10,2013-01-11 06:47:00,
2013-01-11 01:02:00,50.6,49.0,29.95,SW,214,0.0,-999.0,93,-99.99,,,0.00,0,weatherlink.com 1.10,2013-01-11 07:02:00,
2013-01-11 01:17:00,50.5,48.0,29.95,SW,214,0.0,-999.0,91,-99.99,,,0.00,0,weatherlink.com 1.10,2013-01-11 07:17:00,
2013-01-11 01:32:00,50.5,48.0,29.96,SW,214,5.0,-999.0,91,-99.99,,,0.00,0,weatherlink.com 1.10,2013-01-11 07:32:00,
2013-01-11 01:47:00,50.8,48.0,29.96,SW,215,0.0,-999.0,90,-99.99,,,0.00,0,weatherlink.com 1.10,2013-01-11 07:47:00,
2013-01-11 02:02:00,50.3,47.0,29.97,SW,215,3.0,-999.0,89,-99.99,,,0.00,0,weatherlink.com 1.10,2013-01-11 08:02:00,
2013-01-11 02:17:00,49.9,47.0,29.97,SW,215,0.0,-999.0,89,-99.99,,,0.00,0,weatherlink.com 1.10,2013-01-11 08:17:00,
2013-01-11 02:32:00,49.2,47.0,29.97,SW,215,0.0,-999.0,90,-99.99,,,0.00,0,weatherlink.com 1.10,2013-01-11 08:32:00,
2013-01-11 02:47:00,49.2,47.0,29.97,SW,215,0.0,-999.0,90,-99.99,,,0.00,0,weatherlink.com 1.10,2013-01-11 08:47:00,
2013-01-11 03:02:00,49.0,46.0,29.96,SW,215,0.0,-999.0,90,-99.99,,,0.00,0,weatherlink.com 1.10,2013-01-11 09:02:00,
2013-01-11 03:17:00,48.8,46.0,29.97,SW,215,4.0,-999.0,89,-99.99,,,0.00,0,weatherlink.com 1.10,2013-01-11 09:17:00,
2013-01-11 03:32:00,48.5,46.0,29.98,SW,215,2.0,-999.0,89,-99.99,,,0.00,0,weatherlink.com 1.10,2013-01-11 09:32:00,
2013-01-11 03:47:00,48.5,46.0,29.97,SW,215,3.0,-999.0,89,-99.99,,,0.00,0,weatherlink.com 1.10,2013-01-11 09:47:00,
2013-01-11 04:03:00,48.3,45.0,29.98,SW,215,3.0,-999.0,89,-99.99,,,0.00,0,weatherlink.com 1.10,2013-01-11 10:03:00,
2013-01-11 04:18:00,47.8,45.0,29.97,SW,215,0.0,-999.0,90,-99.99,,,0.00,0,weatherlink.com 1.10,2013-01-11 10:18:00,
2013-01-11 04:33:00,47.7,45.0,29.97,SW,215,0.0,-999.0,90,-99.99,,,0.00,0,weatherlink.com 1.10,2013-01-11 10:33:00,
2013-01-11 04:48:00,47.4,45.0,29.97,SW,215,0.0,-999.0,90,-99.99,,,0.00,0,weatherlink.com 1.10,2013-01-11 10:48:00,
2013-01-11 05:03:00,46.9,44.0,29.95,SW,215,2.0,-999.0,90,-99.99,,,0.00,0,weatherlink.com 1.10,2013-01-11 11:03:00,
2013-01-11 05:18:00,46.3,44.0,29.95,SW,215,0.0,-999.0,92,-99.99,,,0.00,0,weatherlink.com 1.10,2013-01-11 11:18:00,
2013-01-11 05:33:00,45.9,44.0,29.94,SW,215,0.0,-999.0,92,-99.99,,,0.00,0,weatherlink.com 1.10,2013-01-11 11:33:00,
2013-01-11 05:48:00,45.8,44.0,29.96,SW,215,0.0,-999.0,93,-99.99,,,0.00,0,weatherlink.com 1.10,2013-01-11 11:48:00,
2013-01-11 06:03:00,46.0,44.0,29.96,SW,215,2.0,-999.0,93,-99.99,,,0.00,0,weatherlink.com 1.10,2013-01-11 12:03:00,
2013-01-11 06:18:00,46.1,44.0,29.97,SW,215,3.0,-999.0,93,-99.99,,,0.00,0,weatherlink.com 1.10,2013-01-11 12:18:00,
2013-01-11 06:33:00,45.8,44.0,29.97,SW,215,0.0,-999.0,93,-99.99,,,0.00,0,weatherlink.com 1.10,2013-01-11 12:33:00,
2013-01-11 06:48:00,45.8,44.0,29.97,SW,215,0.0,-999.0,93,-99.99,,,0.00,0,weatherlink.com 1.10,2013-01-11 12:48:00,
2013-01-11 07:03:00,45.3,43.0,29.97,SW,215,4.0,-999.0,93,-99.99,,,0.00,0,weatherlink.com 1.10,2013-01-11 13:03:00,
2013-01-11 07:18:00,44.9,43.0,29.97,SW,215,2.0,-999.0,93,-99.99,,,0.00,0,weatherlink.com 1.10,2013-01-11 13:18:00,
2013-01-11 07:33:00,44.7,43.0,29.99,SW,215,0.0,-999.0,94,-99.99,,,0.00,7,weatherlink.com 1.10,2013-01-11 13:33:00,
2013-01-11 07:48:00,44.9,43.0,29.99,SW,215,0.0,-999.0,94,-99.99,,,0.00,23,weatherlink.com 1.10,2013-01-11 13:48:00,
2013-01-11 08:03:00,45.5,44.0,29.99,SW,215,5.0,-999.0,95,-99.99,,,0.00,46,weatherlink.com 1.10,2013-01-11 14:03:00,
2013-01-11 08:18:00,45.8,44.0,30.00,SSE,166,6.0,-999.0,94,-99.99,,,0.00,49,weatherlink.com 1.10,2013-01-11 14:18:00,
2013-01-11 08:33:00,46.2,45.0,29.99,SSE,157,6.0,-999.0,94,-99.99,,,0.00,93,weatherlink.com 1.10,2013-01-11 14:33:00,
2013-01-11 08:48:00,46.9,45.0,30.00,SSE,161,5.0,-999.0,94,-99.99,,,0.00,123,weatherlink.com 1.10,2013-01-11 14:48:00,
2013-01-11 09:03:00,47.5,46.0,29.99,SSE,161,6.0,-999.0,93,-99.99,,,0.00,169,weatherlink.com 1.10,2013-01-11 15:03:00,
2013-01-11 09:18:00,48.3,46.0,29.99,SSE,158,7.0,-999.0,92,-99.99,,,0.00,156,weatherlink.com 1.10,2013-01-11 15:18:00,
2013-01-11 09:33:00,49.4,47.0,29.99,SSE,167,9.0,-999.0,91,-99.99,,,0.00,311,weatherlink.com 1.10,2013-01-11 15:33:00,
2013-01-11 09:48:00,50.0,47.0,29.99,SSE,165,10.0,-999.0,90,-99.99,,,0.00,227,weatherlink.com 1.10,2013-01-11 15:48:00,
2013-01-11 10:03:00,50.8,48.0,30.00,SSE,164,2.0,-999.0,89,-99.99,,,0.00,181,weatherlink.com 1.10,2013-01-11 16:03:00,
2013-01-11 10:18:00,51.8,48.0,30.00,SSE,167,8.0,-999.0,88,-99.99,,,0.00,260,weatherlink.com 1.10,2013-01-11 16:18:00,
2013-01-11 10:33:00,51.9,48.0,29.99,SSE,163,5.0,-999.0,87,-99.99,,,0.00,202,weatherlink.com 1.10,2013-01-11 16:33:00,
2013-01-11 10:48:00,52.1,48.0,29.99,SSE,157,5.0,-999.0,87,-99.99,,,0.00,241,weatherlink.com 1.10,2013-01-11 16:48:00,
2013-01-11 11:03:00,52.1,48.0,29.98,SSE,148,7.0,-999.0,86,-99.99,,,0.00,172,weatherlink.com 1.10,2013-01-11 17:03:00,
2013-01-11 11:18:00,52.4,49.0,29.97,SE,142,5.0,-999.0,87,-99.99,,,0.00,543,weatherlink.com 1.10,2013-01-11 17:18:00,
2013-01-11 11:33:00,53.3,49.0,29.96,SE,144,7.0,-999.0,85,-99.99,,,0.00,411,weatherlink.com 1.10,2013-01-11 17:33:00,
2013-01-11 11:49:00,54.7,50.0,29.95,SSE,149,0.0,-999.0,83,-99.99,,,0.00,306,weatherlink.com 1.10,2013-01-11 17:49:00,
2013-01-11 12:04:00,54.9,49.0,29.95,SE,140,0.0,-999.0,80,-99.99,,,0.00,295,weatherlink.com 1.10,2013-01-11 18:04:00,
2013-01-11 12:19:00,56.4,50.0,29.94,SE,136,0.0,-999.0,80,-99.99,,,0.00,381,weatherlink.com 1.10,2013-01-11 18:19:00,
2013-01-11 12:34:00,58.2,51.0,29.93,South,169,2.0,-999.0,76,-99.99,,,0.00,504,weatherlink.com 1.10,2013-01-11 18:34:00,
2013-01-11 12:49:00,59.8,51.0,29.93,SE,144,0.0,-999.0,73,-99.99,,,0.00,584,weatherlink.com 1.10,2013-01-11 18:49:00,
2013-01-11 13:04:00,61.6,50.0,29.91,South,179,9.0,-999.0,66,-99.99,,,0.00,490,weatherlink.com 1.10,2013-01-11 19:04:00,
2013-01-11 13:34:00,61.8,49.0,29.91,SSE,150,2.0,-999.0,63,-99.99,,,0.00,221,weatherlink.com 1.10,2013-01-11 19:34:00,
2013-01-11 13:49:00,61.8,49.0,29.91,SSE,167,4.0,-999.0,64,-99.99,,,0.00,241,weatherlink.com 1.10,2013-01-11 19:49:00,
2013-01-11 14:04:00,62.9,50.0,29.92,SSE,164,1.0,-999.0,63,-99.99,,,0.00,346,weatherlink.com 1.10,2013-01-11 20:04:00,
2013-01-11 14:19:00,64.2,49.0,29.91,South,184,0.0,-999.0,59,-99.99,,,0.00,227,weatherlink.com 1.10,2013-01-11 20:19:00,
2013-01-11 14:34:00,64.3,49.0,29.91,South,179,1.0,-999.0,59,-99.99,,,0.00,160,weatherlink.com 1.10,2013-01-11 20:34:00,
2013-01-11 14:49:00,64.4,50.0,29.91,South,170,8.0,-999.0,59,-99.99,,,0.00,374,weatherlink.com 1.10,2013-01-11 20:49:00,
2013-01-11 15:04:00,65.0,49.0,29.90,South,169,6.0,-999.0,56,-99.99,,,0.00,332,weatherlink.com 1.10,2013-01-11 21:04:00,
2013-01-11 15:19:00,65.0,49.0,29.90,SSE,150,7.0,-999.0,56,-99.99,,,0.00,234,weatherlink.com 1.10,2013-01-11 21:19:00,
2013-01-11 15:34:00,65.3,49.0,29.90,SSE,161,1.0,-999.0,56,-99.99,,,0.00,178,weatherlink.com 1.10,2013-01-11 21:34:00,
2013-01-11 15:49:00,64.5,49.0,29.90,SSE,152,5.0,-999.0,57,-99.99,,,0.00,153,weatherlink.com 1.10,2013-01-11 21:49:00,
2013-01-11 16:04:00,63.2,49.0,29.89,SSE,148,1.0,-999.0,60,-99.99,,,0.00,70,weatherlink.com 1.10,2013-01-11 22:04:00,
2013-01-11 16:19:00,62.4,49.0,29.89,SE,144,0.0,-999.0,62,-99.99,,,0.00,51,weatherlink.com 1.10,2013-01-11 22:19:00,
2013-01-11 16:34:00,61.7,48.0,29.88,SSE,148,6.0,-999.0,62,-99.99,,,0.00,44,weatherlink.com 1.10,2013-01-11 22:34:00,
2013-01-11 16:49:00,61.3,48.0,29.88,SE,140,4.0,-999.0,63,-99.99,,,0.00,19,weatherlink.com 1.10,2013-01-11 22:49:00,
2013-01-11 17:04:00,60.7,48.0,29.88,SSE,156,0.0,-999.0,63,-99.99,,,0.00,7,weatherlink.com 1.10,2013-01-11 23:04:00,
2013-01-11 17:19:00,60.6,47.0,29.89,SE,128,0.0,-999.0,62,-99.99,,,0.00,0,weatherlink.com 1.10,2013-01-11 23:19:00,
2013-01-11 17:34:00,60.2,47.0,29.90,SE,128,0.0,-999.0,63,-99.99,,,0.00,0,weatherlink.com 1.10,2013-01-11 23:34:00,
2013-01-11 17:49:00,59.4,48.0,29.90,SE,128,0.0,-999.0,66,-99.99,,,0.00,0,weatherlink.com 1.10,2013-01-11 23:49:00,
2013-01-11 18:04:00,58.5,47.0,29.89,SE,128,4.0,-999.0,67,-99.99,,,0.00,0,weatherlink.com 1.10,2013-01-12 00:04:00,
2013-01-11 18:19:00,57.3,47.0,29.90,SE,132,4.0,-999.0,69,-99.99,,,0.00,0,weatherlink.com 1.10,2013-01-12 00:19:00,
2013-01-11 18:34:00,56.9,47.0,29.90,SE,134,0.0,-999.0,70,-99.99,,,0.00,0,weatherlink.com 1.10,2013-01-12 00:34:00,
2013-01-11 18:49:00,57.0,47.0,29.90,SE,136,0.0,-999.0,70,-99.99,,,0.00,0,weatherlink.com 1.10,2013-01-12 00:49:00,
2013-01-11 19:04:00,56.6,47.0,29.91,SE,136,0.0,-999.0,71,-99.99,,,0.00,0,weatherlink.com 1.10,2013-01-12 01:04:00,
2013-01-11 19:19:00,56.2,47.0,29.90,SE,136,0.0,-999.0,72,-99.99,,,0.00,0,weatherlink.com 1.10,2013-01-12 01:19:00,
2013-01-11 19:34:00,56.0,47.0,29.91,SE,136,0.0,-999.0,73,-99.99,,,0.00,0,weatherlink.com 1.10,2013-01-12 01:34:00,
2013-01-11 19:49:00,55.8,48.0,29.91,SE,136,1.0,-999.0,74,-99.99,,,0.00,0,weatherlink.com 1.10,2013-01-12 01:49:00,
2013-01-11 20:04:00,55.5,48.0,29.92,SE,136,2.0,-999.0,75,-99.99,,,0.00,0,weatherlink.com 1.10,2013-01-12 02:04:00,
2013-01-11 20:19:00,55.1,48.0,29.92,SE,136,0.0,-999.0,77,-99.99,,,0.00,0,weatherlink.com 1.10,2013-01-12 02:19:00,
2013-01-11 20:34:00,55.0,48.0,29.92,SE,136,0.0,-999.0,78,-99.99,,,0.00,0,weatherlink.com 1.10,2013-01-12 02:34:00,
2013-01-11 20:49:00,55.2,49.0,29.92,SE,136,1.0,-999.0,79,-99.99,,,0.00,0,weatherlink.com 1.10,2013-01-12 02:49:00,
2013-01-11 21:04:00,55.1,49.0,29.91,SE,136,0.0,-999.0,79,-99.99,,,0.00,0,weatherlink.com 1.10,2013-01-12 03:04:00,
2013-01-11 21:19:00,54.9,49.0,29.91,SE,136,0.0,-999.0,80,-99.99,,,0.00,0,weatherlink.com 1.10,2013-01-12 03:19:00,
2013-01-11 21:34:00,55.1,49.0,29.92,SE,136,0.0,-999.0,80,-99.99,,,0.00,0,weatherlink.com 1.10,2013-01-12 03:34:00,
2013-01-11 21:49:00,55.3,49.0,29.92,SE,136,7.0,-999.0,80,-99.99,,,0.00,0,weatherlink.com 1.10,2013-01-12 03:49:00,
2013-01-11 22:04:00,55.7,50.0,29.92,SE,136,0.0,-999.0,80,-99.99,,,0.00,0,weatherlink.com 1.10,2013-01-12 04:04:00,
2013-01-11 22:19:00,56.0,50.0,29.93,SE,136,0.0,-999.0,79,-99.99,,,0.00,0,weatherlink.com 1.10,2013-01-12 04:19:00,
2013-01-11 22:34:00,56.5,50.0,29.93,SE,136,0.0,-999.0,79,-99.99,,,0.00,0,weatherlink.com 1.10,2013-01-12 04:34:00,
2013-01-11 22:49:00,56.7,50.0,29.93,SE,136,0.0,-999.0,79,-99.99,,,0.00,0,weatherlink.com 1.10,2013-01-12 04:49:00,
2013-01-11 23:04:00,56.8,50.0,29.93,SE,136,0.0,-999.0,79,-99.99,,,0.00,0,weatherlink.com 1.10,2013-01-12 05:04:00,
2013-01-11 23:19:00,57.2,51.0,29.92,SE,136,0.0,-999.0,79,-99.99,,,0.00,0,weatherlink.com 1.10,2013-01-12 05:19:00,
2013-01-11 23:34:00,57.3,51.0,29.92,SE,136,0.0,-999.0,78,-99.99,,,0.00,0,weatherlink.com 1.10,2013-01-12 05:34:00,
2013-01-11 23:49:00,57.4,51.0,29.92,SE,136,0.0,-999.0,78,-99.99,,,0.00,0,weatherlink.com 1.10,2013-01-12 05:49:00,